Location: Gajan
(43.0218°N, 1.1244°E)
Time: 02:29:16
(UTC+00:00)

OBJECT-B - Pass Details

Date: 22 April 2021
Orbit: 415 x 424 km, 97.0° (Epoch: 25 April)

Event Time Altitude Azimuth Distance (km) Brightness Sun altitude
Exits shadow 19:53:28 - 175° (S) 1,742 3.5 -12.0°
Reaches altitude 10° 19:54:03 10° 176° (S) 1,497 3.2 -12.1°
Maximum altitude 19:57:13 65° 259° (W) 468 1.1 -12.6°
Drops below altitude 10° 20:00:27 10° 343° (NNW) 1,516 4.3 -13.1°
Sets 20:02:29 0° 346° (NNW) 2,388 5.3 -13.4°
